Wind_Speed
18 18 16 15 15 15 16 18 17 16 16 19 20 20 20 21 20 19 19 19 19 19 19 20 19 19 18 17 17 17 17 17 16 16 16 16 17 17 16 16 15 14 13 13
18 17 17 18 17 17 18 18 18 17 18 20 20 20 21 21 21 20 20 21 21 21 21 20 19 19 18 18 18 18 18 18 17 17 17 17 17 17 16 16 15 14 14 13
18 17 19 19 18 18 19 18 19 19 20 20 21 22 22 22 22 21 21 21 22 22 22 20 20 20 20 19 19 19 18 18 18 18 18 17 17 17 17 17 16 15 15 14
19 18 19 19 19 20 19 18 20 21 21 21 22 24 22 22 22 22 21 21 22 22 22 21 21 20 20 20 20 20 19 19 18 18 18 17 17 17 18 17 16 16 16 15
18 18 19 20 19 19 20 20 22 24 24 23 23 25 22 22 23 23 23 22 22 21 21 21 21 21 21 20 21 20 19 19 19 19 18 18 18 18 17 17 16 16 16 16
19 20 21 21 20 19 19 21 24 25 25 25 23 25 23 23 24 23 23 22 23 22 22 22 23 23 22 20 20 20 19 19 19 19 19 19 19 18 17 17 16 16 15 15
20 20 21 20 20 19 19 21 24 26 25 24 22 25 24 23 23 22 22 22 22 21 22 21 22 23 22 21 21 21 20 19 19 19 20 20 20 19 18 17 17 17 16 15
20 20 20 20 20 19 20 22 23 24 24 23 23 25 23 21 21 22 22 22 21 21 21 22 22 22 22 21 21 20 19 19 19 20 20 20 20 19 19 18 18 18 17 16
21 20 21 22 21 21 21 22 21 23 23 24 24 24 23 22 22 21 22 21 21 21 22 23 22 21 21 21 20 20 19 20 20 20 20 20 20 20 19 19 19 19 18 17
22 22 21 22 23 22 23 22 22 23 24 25 24 23 23 23 22 21 20 19 20 21 22 23 23 22 21 20 20 20 20 20 20 20 21 21 20 20 20 20 19 18 18 18
24 23 21 22 23 23 23 23 24 25 27 27 27 25 23 23 22 21 20 19 20 21 21 20 21 21 21 20 20 21 21 21 21 21 21 22 21 20 19 19 20 19 18 19
24 25 24 23 23 24 25 25 25 27 27 27 27 26 23 23 23 23 21 21 20 21 22 21 21 21 21 21 21 21 21 21 21 21 22 22 22 21 20 20 20 20 19 19
24 25 26 25 24 25 26 27 28 29 29 28 29 27 24 25 25 24 23 23 22 21 22 21 21 21 21 21 21 21 21 21 20 21 21 22 22 21 20 20 21 20 20 19
24 25 25 25 25 26 27 28 29 30 31 31 30 28 26 25 25 25 25 25 24 22 22 22 22 22 22 21 21 21 21 20 20 20 20 21 20 20 20 19 21 21 21 20
25 24 24 25 25 25 28 29 29 29 30 31 30 29 27 26 25 25 24 25 25 24 23 22 22 22 22 22 20 20 20 20 20 19 20 20 20 20 20 20 20 20 21 20
26 25 25 25 26 26 27 28 29 29 29 30 29 27 26 27 26 25 25 25 25 24 23 22 23 23 22 21 20 19 19 18 19 19 19 19 20 19 19 20 19 20 20 19
26 26 26 25 25 26 26 25 27 28 30 30 29 27 25 26 26 27 26 26 26 25 23 22 22 23 21 20 20 20 20 20 19 19 19 19 19 19 19 19 19 20 19 19
25 25 26 25 25 26 24 24 26 28 29 29 29 27 27 27 27 26 27 28 27 27 25 24 23 22 21 20 20 20 20 20 19 19 19 19 19 19 19 19 20 20 20 20
24 24 25 25 26 25 23 22 24 26 26 27 27 27 28 28 26 26 28 28 28 27 26 25 24 23 22 22 22 21 21 20 19 20 20 20 20 19 19 20 21 21 21 21
23 23 24 25 25 25 23 21 21 23 24 24 25 26 27 28 27 26 27 27 27 25 24 23 23 23 22 22 21 21 20 20 20 20 20 20 20 20 20 20 20 20 21 21
22 22 23 23 24 24 22 20 20 21 21 22 24 24 25 25 26 25 24 25 26 26 25 24 23 22 22 22 21 21 21 20 20 20 19 19 19 19 19 20 20 20 21 21
22 22 22 23 22 22 20 20 20 21 21 22 22 22 22 23 24 25 25 24 25 25 24 24 22 22 22 22 22 22 22 21 21 21 21 20 19 19 19 20 20 20 21 21
22 23 23 22 20 20 20 20 20 20 21 21 21 21 20 21 22 23 23 22 23 23 23 23 23 22 22 23 22 22 22 22 21 20 20 20 20 20 20 20 20 21 21 21
22 22 21 20 20 20 20 20 20 20 19 20 19 19 19 21 21 21 20 21 21 22 22 22 22 22 22 22 22 22 22 22 22 21 21 22 22 21 21 21 21 21 21 21
18 20 21 20 19 20 20 20 20 20 19 20 20 19 19 21 20 21 21 21 21 21 21 22 22 22 22 22 22 22 23 23 22 22 22 21 21 22 21 21 21 21 22 23
19 19 20 20 19 19 19 19 19 20 21 20 20 20 21 21 20 19 19 19 19 19 20 21 22 22 21 21 22 22 22 22 22 21 21 21 21 20 21 21 21 21 22 23
Wind_Direction
236 237 237 240 243 243 243 241 243 248 252 257 261 264 266 268 270 275 279 281 286 291 293 291 290 288 286 287 291 294 294 293 294 293 293 293 293 295 296 296 291 284 282 282
237 237 235 236 238 239 244 246 244 245 251 258 263 266 268 271 272 276 278 279 283 288 290 287 288 287 287 290 292 291 291 290 288 289 292 293 293 294 296 294 288 281 279 277
238 236 238 238 237 238 243 248 248 250 253 257 262 264 267 271 269 271 275 281 284 284 286 287 285 281 284 289 290 289 286 285 285 285 288 290 290 291 293 293 286 279 274 273
237 237 239 241 239 242 245 249 251 251 254 257 260 265 267 270 270 273 274 279 284 284 285 284 283 283 285 288 286 286 283 282 282 282 283 286 288 289 289 288 284 279 274 271
239 240 242 245 247 251 253 251 253 255 254 255 256 263 267 269 271 272 273 277 283 285 285 284 284 282 283 286 286 285 278 277 278 278 280 284 286 288 287 286 282 279 275 270
244 244 248 250 250 251 253 251 251 252 255 256 255 261 264 268 271 273 272 274 280 281 283 283 282 283 284 283 283 283 277 277 277 277 278 281 285 287 286 285 283 279 277 274
245 246 248 250 252 252 254 255 253 251 254 257 256 259 264 270 272 276 275 273 277 279 280 282 285 283 283 282 283 282 277 276 276 276 278 281 285 285 284 281 279 276 276 275
247 245 245 247 249 251 253 255 256 258 256 255 256 259 265 269 272 273 277 274 274 278 281 283 284 284 282 284 280 279 277 275 275 276 279 281 283 284 283 279 276 274 272 271
251 249 244 244 246 250 253 254 256 259 258 258 259 262 265 265 267 273 278 277 276 277 280 283 282 284 283 281 280 279 279 277 277 278 280 280 281 283 284 281 276 272 270 268
256 254 248 245 247 251 255 255 255 256 257 258 259 263 265 266 268 271 275 273 272 274 278 280 280 283 283 280 278 279 278 278 277 278 279 279 278 281 282 279 275 271 268 265
260 258 254 250 249 254 255 252 253 256 257 259 260 262 267 268 269 270 275 275 272 275 281 282 284 285 284 280 278 277 277 276 275 277 278 278 277 278 279 277 273 270 268 266
264 263 260 256 254 254 254 253 253 255 256 259 262 262 263 266 269 270 272 275 274 275 281 286 287 283 281 279 278 276 276 276 274 275 276 277 276 276 276 276 273 272 269 266
263 264 264 260 255 255 254 255 257 257 255 258 262 264 262 264 267 268 271 272 274 276 279 281 282 281 281 280 280 277 278 278 275 274 274 274 274 273 274 274 272 271 269 264
265 266 265 264 260 255 253 254 257 257 255 257 261 263 264 267 268 269 269 271 273 274 277 279 281 282 280 278 278 277 275 273 272 271 272 273 272 271 272 273 271 267 265 262
263 263 262 264 263 260 257 255 255 257 257 257 258 259 260 263 266 267 267 268 272 273 276 281 281 281 279 277 275 272 271 271 270 270 271 273 273 271 270 271 272 265 263 260
261 262 262 263 264 263 261 258 257 258 260 259 258 259 259 259 263 264 267 267 270 271 273 276 279 281 279 277 277 276 273 271 269 270 272 273 273 272 271 269 269 265 263 261
262 264 264 264 263 264 263 263 261 259 259 260 258 257 259 260 261 263 265 267 270 272 274 275 278 279 276 277 280 280 278 276 270 271 272 273 275 272 269 267 267 267 266 265
261 264 266 267 266 265 267 265 262 262 261 261 260 259 259 261 263 264 265 268 269 270 271 274 277 276 274 276 277 277 276 277 273 271 273 273 272 269 268 267 267 267 266 265
261 262 265 266 267 269 266 267 263 263 263 263 260 259 261 263 266 266 266 267 267 269 268 270 274 273 271 273 275 275 273 273 274 274 273 271 270 268 269 269 269 268 266 265
263 263 266 267 268 269 269 270 266 264 264 263 262 261 262 262 264 267 267 266 267 268 268 270 271 270 271 271 271 272 271 270 273 274 272 270 269 270 271 271 270 269 267 267
267 267 268 270 270 270 272 270 269 267 265 263 264 264 263 263 265 268 268 265 265 268 268 270 271 270 269 270 270 271 270 271 273 273 271 272 272 272 271 272 272 270 267 266
269 268 266 267 271 273 272 270 269 269 265 264 267 268 266 266 265 267 269 266 265 267 267 268 270 268 266 266 269 269 271 271 271 273 273 273 274 273 271 271 272 271 269 267
271 271 270 271 272 272 272 271 268 268 265 267 269 269 268 267 266 268 266 266 266 266 263 264 266 265 265 267 269 270 270 270 271 272 272 272 273 272 270 271 271 271 270 269
273 273 273 274 273 274 272 268 268 268 264 263 267 267 270 271 267 268 269 267 266 265 261 261 263 263 265 264 266 269 271 272 273 274 274 273 272 270 269 270 271 271 271 270
271 272 274 276 274 273 270 269 268 268 265 263 265 268 269 272 269 268 269 267 265 263 259 259 260 261 263 264 267 268 269 271 271 272 273 274 274 270 269 270 272 274 272 271
270 271 274 275 275 274 271 270 269 269 267 266 268 270 273 273 274 270 270 269 266 263 260 261 263 264 264 264 266 268 269 269 270 270 271 273 274 272 271 273 275 277 277 274
Height
5861 5863 5864 5866 5866 5868 5868 5869 5870 5871 5871 5870 5870 5870 5871 5870 5870 5870 5870 5870 5869 5869 5869 5868 5866 5866 5866 5865 5864 5863 5862 5861 5861 5860 5859 5858 5857 5855 5854 5853 5852 5852 5851 5851
5857 5859 5860 5861 5862 5863 5863 5865 5866 5866 5866 5866 5866 5866 5866 5866 5866 5866 5865 5865 5865 5864 5864 5862 5862 5861 5861 5861 5860 5859 5858 5857 5856 5856 5855 5854 5852 5851 5850 5849 5848 5848 5847 5847
5853 5856 5855 5856 5857 5858 5859 5860 5861 5861 5861 5861 5861 5862 5861 5861 5861 5861 5861 5860 5859 5859 5858 5858 5857 5857 5856 5856 5855 5855 5854 5853 5852 5851 5850 5849 5848 5847 5846 5845 5844 5844 5843 5843
5848 5850 5851 5851 5852 5853 5854 5856 5856 5856 5856 5856 5857 5856 5857 5856 5855 5855 5855 5854 5854 5853 5853 5852 5852 5852 5851 5851 5850 5849 5849 5848 5847 5847 5846 5845 5844 5843 5842 5841 5840 5839 5839 5839
5844 5845 5846 5846 5848 5848 5849 5850 5850 5850 5850 5851 5851 5850 5851 5850 5850 5850 5849 5849 5849 5848 5847 5847 5847 5846 5846 5845 5845 5843 5843 5843 5842 5842 5841 5840 5840 5838 5837 5836 5835 5835 5834 5834
5839 5840 5841 5842 5843 5843 5844 5845 5845 5844 5844 5845 5845 5844 5844 5845 5845 5845 5844 5844 5844 5843 5842 5842 5841 5840 5840 5839 5839 5838 5838 5838 5838 5837 5836 5835 5834 5833 5833 5832 5831 5830 5830 5830
5834 5835 5836 5837 5837 5838 5838 5839 5839 5838 5838 5839 5840 5838 5839 5840 5840 5840 5839 5839 5838 5838 5837 5836 5836 5835 5834 5833 5833 5833 5832 5832 5832 5832 5831 5830 5829 5828 5828 5827 5827 5826 5826 5825
5828 5830 5831 5831 5832 5832 5832 5833 5833 5833 5833 5834 5833 5832 5835 5835 5834 5834 5834 5833 5833 5833 5832 5831 5830 5829 5828 5827 5827 5827 5826 5826 5826 5826 5825 5825 5824 5823 5823 5822 5822 5821 5821 5821
5822 5825 5826 5826 5826 5826 5827 5827 5828 5827 5827 5827 5827 5827 5828 5829 5829 5829 5829 5828 5828 5827 5827 5826 5825 5824 5824 5822 5821 5821 5820 5820 5820 5820 5819 5819 5819 5818 5817 5817 5816 5816 5816 5816
5817 5818 5820 5820 5821 5820 5821 5821 5821 5821 5821 5821 5821 5821 5822 5823 5823 5823 5823 5822 5822 5821 5821 5821 5820 5819 5818 5817 5816 5815 5815 5814 5814 5814 5814 5813 5813 5813 5812 5811 5810 5811 5811 5811
5811 5812 5814 5814 5814 5814 5815 5815 5814 5815 5815 5815 5815 5818 5817 5817 5818 5817 5817 5817 5816 5815 5814 5814 5814 5813 5812 5811 5810 5810 5809 5808 5808 5808 5808 5807 5807 5807 5806 5805 5805 5805 5805 5805
5805 5806 5807 5809 5809 5808 5808 5808 5808 5809 5809 5809 5809 5813 5812 5812 5811 5812 5812 5812 5810 5810 5809 5809 5808 5807 5807 5805 5804 5803 5803 5802 5802 5802 5802 5801 5801 5801 5800 5800 5800 5800 5799 5800
5799 5799 5800 5802 5805 5803 5802 5802 5802 5802 5803 5802 5803 5806 5805 5805 5805 5806 5806 5805 5805 5804 5804 5803 5802 5801 5800 5799 5798 5798 5797 5796 5796 5796 5795 5795 5795 5795 5795 5794 5794 5794 5793 5794
5792 5792 5793 5795 5795 5795 5796 5796 5796 5796 5796 5796 5797 5798 5799 5799 5799 5799 5799 5799 5799 5798 5798 5797 5796 5795 5794 5793 5793 5791 5790 5789 5789 5789 5789 5788 5788 5789 5789 5788 5788 5788 5788 5788
5786 5786 5786 5786 5787 5787 5788 5788 5789 5788 5788 5789 5790 5790 5792 5792 5792 5792 5793 5792 5792 5792 5791 5791 5790 5788 5788 5787 5786 5785 5784 5783 5783 5783 5783 5782 5782 5782 5782 5782 5782 5781 5781 5782
5779 5779 5779 5780 5780 5780 5780 5781 5781 5781 5781 5782 5783 5784 5784 5784 5785 5785 5785 5785 5785 5785 5785 5784 5784 5782 5781 5781 5780 5778 5778 5778 5778 5777 5777 5777 5776 5776 5776 5776 5775 5775 5776 5776
5772 5773 5773 5773 5773 5773 5773 5774 5774 5774 5774 5775 5775 5778 5777 5778 5778 5778 5778 5778 5778 5778 5778 5778 5777 5777 5775 5775 5773 5773 5772 5772 5772 5771 5771 5771 5770 5770 5770 5770 5770 5769 5769 5769
5766 5766 5766 5766 5767 5766 5769 5767 5767 5766 5766 5768 5768 5769 5770 5770 5771 5771 5771 5771 5771 5771 5771 5771 5771 5770 5769 5769 5768 5767 5767 5766 5766 5765 5765 5765 5765 5764 5764 5764 5764 5764 5764 5764
5759 5759 5759 5759 5758 5758 5760 5760 5760 5759 5759 5760 5761 5761 5762 5763 5763 5763 5763 5763 5763 5764 5764 5764 5764 5764 5763 5762 5762 5762 5762 5761 5760 5760 5759 5759 5758 5758 5758 5758 5758 5758 5758 5757
5752 5752 5753 5752 5751 5751 5754 5753 5752 5753 5752 5754 5754 5754 5755 5756 5757 5758 5757 5756 5756 5756 5756 5755 5756 5757 5757 5756 5756 5755 5755 5755 5754 5753 5753 5752 5752 5752 5752 5752 5752 5751 5751 5751
5745 5746 5746 5745 5744 5744 5746 5746 5746 5747 5747 5747 5746 5746 5747 5748 5749 5750 5748 5748 5748 5748 5749 5749 5749 5749 5750 5750 5749 5749 5749 5748 5748 5747 5746 5746 5745 5745 5745 5745 5745 5745 5744 5744
5739 5739 5738 5738 5737 5740 5739 5739 5739 5740 5739 5739 5739 5739 5740 5741 5741 5741 5741 5741 5741 5741 5742 5742 5742 5743 5743 5743 5742 5742 5742 5742 5741 5740 5739 5739 5739 5738 5738 5738 5738 5738 5737 5737
5732 5732 5731 5731 5733 5732 5732 5731 5731 5732 5732 5732 5732 5733 5733 5734 5734 5733 5733 5734 5734 5734 5735 5735 5735 5736 5736 5736 5735 5735 5735 5735 5734 5734 5733 5733 5732 5732 5732 5731 5731 5731 5730 5730
5725 5725 5725 5724 5725 5725 5725 5725 5725 5725 5725 5726 5726 5726 5727 5727 5727 5726 5726 5727 5727 5727 5727 5727 5728 5729 5730 5730 5729 5729 5728 5728 5728 5727 5727 5726 5725 5725 5725 5724 5724 5724 5723 5723
5720 5719 5718 5718 5719 5719 5719 5719 5719 5719 5719 5720 5720 5720 5720 5720 5720 5720 5720 5720 5720 5720 5720 5721 5722 5723 5723 5723 5722 5722 5721 5721 5721 5721 5720 5719 5718 5718 5718 5717 5717 5716 5716 5715
5714 5713 5713 5713 5713 5713 5714 5713 5713 5714 5714 5714 5714 5714 5713 5713 5713 5713 5713 5713 5714 5714 5714 5715 5715 5716 5716 5716 5716 5715 5714 5714 5714 5713 5713 5712 5712 5712 5711 5711 5710 5709 5708 5707